Lid_Strength_Index
7 4 0 1 1 -0 -0 -1 -1 -1 -1 -1 -1 -1 -1 -1 -1 -1 -1 -1 -1 -1 -1 -1 -1 -1 -2 -2 -2 -2 -1 -2 -2 -2 -2 -2 -1 -1 -1 -2 -1 -1 -2
6 4 -1 0 2 2 1 1 -0 -1 -1 -1 -1 -1 -1 -1 -1 -1 -1 -1 -1 -1 -1 -1 -1 -1 -1 -1 -1 -1 -2 -2 -2 -2 -2 -2 -2 -1 -1 -1 -1 -1 -2
5 4 3 -0 -0 2 2 1 2 0 -1 -1 -1 -1 -1 -1 -1 -1 -1 -1 -1 -1 -1 -1 -1 -1 -1 -1 -1 -1 -2 -2 -2 -2 -2 0 0 -2 -1 -1 -1 -1 -1
6 4 3 -0 -0 -0 2 3 2 2 1 -0 -1 -1 -1 -1 -1 -1 -1 -1 -1 -1 -1 -1 -1 -1 -1 -1 -1 -1 -1 -2 -1 -1 -0 -0 -0 -2 -2 -1 -1 -1 -1
7 6 3 1 1 0 0 2 3 2 2 1 -0 -1 -1 -1 -1 -1 -1 -1 -1 -1 -1 -1 -1 -1 -1 -1 -1 -1 -1 -2 -1 -1 0 0 0 -1 -2 -2 -1 -2 -2
8 7 5 2 2 1 1 1 2 3 3 3 2 -0 -1 -1 -1 -1 -1 -1 -1 -1 -1 -1 -1 -1 -1 -1 -1 -1 -1 -1 -1 0 1 0 0 -2 -2 -2 -1 -2 -1
9 8 7 4 3 3 2 2 1 2 3 3 3 2 0 -1 -1 -1 -1 -1 -1 -1 -1 -1 -1 -1 -1 -1 -1 -1 -1 -1 0 1 1 2 1 -1 -2 -2 -1 -2 -1
9 8 8 6 5 4 3 3 2 2 2 3 3 3 2 1 0 -1 -1 -1 -1 -1 -1 -1 -1 -1 -1 -1 -1 -1 -1 0 0 1 1 2 -1 -2 -2 -1 -1 -2 -2
10 10 9 9 8 6 5 5 4 3 2 3 3 4 3 4 1 0 -1 -1 -1 -1 -1 -1 -1 -1 -1 -1 -1 -0 0 1 1 1 1 1 -1 -2 -2 -1 -1 -1 -1
11 10 10 10 9 9 9 6 5 5 4 3 4 4 4 4 3 1 1 0 -1 -1 -1 -1 -1 -1 -1 -1 -0 0 1 1 1 1 1 -0 -2 -2 -2 -2 -1 -1 -1
11 11 11 11 10 10 9 8 7 6 5 5 5 4 5 4 4 3 1 1 -0 -0 -1 -1 -1 -1 -0 0 1 1 1 0 1 1 -0 -0 -1 -2 -2 -1 -1 -1 -1
13 12 11 11 11 10 9 9 9 8 7 7 6 6 5 5 4 4 3 2 2 1 0 -1 -1 0 1 -0 -0 1 -0 1 1 1 -0 -0 -1 -2 -2 -1 -1 -1 -1
13 12 11 11 11 11 10 9 8 8 7 7 7 7 6 5 4 3 2 0 0 3 1 -0 -0 -0 0 -0 -0 -0 1 1 1 0 -0 0 -1 -2 -2 -1 -1 -1 -2
13 13 12 11 11 11 10 10 9 9 7 7 6 6 7 6 5 5 3 1 0 0 1 0 0 0 0 -0 -0 0 1 1 1 0 1 2 -0 -2 -2 -2 -2 -2 -2
13 13 12 11 11 11 11 11 10 9 8 7 7 6 6 6 5 4 4 3 1 -0 0 0 0 0 0 0 1 1 1 1 1 1 1 3 1 -1 -2 -2 -2 -2 -2
13 13 12 12 11 11 11 11 11 10 9 8 7 6 5 5 5 4 4 4 3 -0 -0 0 0 0 1 1 2 2 2 1 1 1 1 1 1 -0 -1 -2 -2 -2 -2
13 12 12 12 11 12 11 11 11 10 9 8 8 7 7 5 4 4 4 5 4 0 1 0 1 1 2 2 2 2 2 1 2 2 2 2 2 2 0 -1 -2 -2 -2
13 13 12 12 12 12 11 11 11 10 10 9 8 7 7 5 4 4 4 4 3 0 2 2 1 2 2 3 3 3 2 2 2 2 2 2 2 2 2 1 -1 -1 -2
14 14 14 13 13 12 12 11 11 10 10 9 8 8 7 6 4 4 4 3 3 1 1 2 3 2 3 3 3 2 4 4 4 4 4 3 4 5 6 5 4 3 -0
14 14 14 13 12 12 11 11 11 10 8 8 8 8 7 6 5 4 4 3 3 1 1 1 2 2 3 4 7 9 10 11 10 9 9 9 9 10 9 9 8 6 3
14 14 13 13 12 12 12 11 10 10 9 7 7 6 6 6 6 4 4 4 3 3 2 1 1 2 5 7 9 10 12 12 13 13 12 13 13 13 13 13 12 11 8
15 14 14 13 12 12 11 10 10 9 8 7 6 5 5 4 4 3 3 4 2 2 2 1 1 2 5 5 6 8 10 11 13 14 14 13 14 14 15 15 15 14 12
16 15 14 13 12 11 11 11 9 9 9 8 6 5 2 1 3 3 3 3 3 1 2 1 1 2 5 5 4 6 9 9 13 15 16 16 15 16 16 16 16 16 15
16 15 14 13 12 11 12 12 12 11 11 9 7 5 3 2 4 5 5 5 4 4 2 2 3 2 3 5 4 4 6 9 9 13 15 17 17 17 18 17 18 17 17
16 16 15 14 13 12 12 12 12 11 10 8 7 5 3 3 5 6 7 7 6 5 5 5 4 4 2 3 4 6 7 9 10 11 14 17 18 19 19 18 18 18 18
17 16 16 15 14 13 12 12 12 11 11 9 8 6 4 5 6 7 7 8 8 8 8 7 6 6 5 4 2 5 7 8 10 11 15 16 17 20 20 19 19 19 19